Weather History for Setif, Algeria

Change the Weather History Date:

Wednesday, February 13, 2013

  Actual Average Record
Temperature  
Mean Temperature 32 °F -  
Max Temperature 41 °F - - ()
Min Temperature 23 °F - - ()
Degree Days  
Heating Degree Days 33    
Moisture  
Dew Point 29 °F    
Average Humidity 84    
Maximum Humidity 100    
Minimum Humidity 65    
Precipitation  
Precipitation 0.04 in - - ()
Sea Level Pressure  
Sea Level Pressure 29.98 in    
Wind  
Wind Speed 8 mph ()    
Max Wind Speed 21 mph    
Max Gust Speed -    
Visibility 4.2 miles    
Events Rain , Snow    
T = Trace of Precipitation, MM = Missing Value Source: Averaged Metar Reports

Daily Weather History Graph

Daily Weather History Graph

Search for Another Location

Airport:

Trip Planner

Search our weather history database for the weather conditions in past years. The results will help you decide how hot, cold, wet, or windy it might be!

Date:

Astronomy

Feb. 13, 2013 Rise Set
Actual Time 7:28 AM CET 6:17 PM CET
Civil Twilight 7:01 AM CET 6:44 PM CET
Nautical Twilight 6:31 AM CET 7:14 PM CET
Astronomical Twilight 6:01 AM CET 7:44 PM CET
Moon 8:57 AM CET (2/13) 9:55 PM CET (2/13)
Length of Visible Light 11h 42m
Length of Day
10h 49m
Waxing Crescent, 12% of the Moon is Illuminated
Feb 13
Waxing Crescent
Feb 17
First Quarter
Feb 25
Full
Mar 4
Last Quarter
Mar 11
New

Hourly Weather History & Observations

Time (CET) Temp. Windchill Dew Point Humidity Pressure Visibility Wind Dir Wind Speed Gust Speed Precip Events Conditions
1:00 AM 31 °F - 30 °F 93%  in 4 mi WNW 12.7 mph - - Snow Light Snow
1:00 AM 32.0 °F 22.5 °F 30.2 °F 93% 30.01 in 3.7 mi WNW 12.7 mph - N/A   Mostly Cloudy
2:00 AM 30.2 °F 22.6 °F 30.2 °F 100% 29.98 in 3.7 mi West 8.1 mph - N/A   Mostly Cloudy
3:00 AM 30.2 °F 24.3 °F 28.4 °F 93% 29.98 in 4.3 mi West 5.8 mph - N/A   Mostly Cloudy
4:00 AM 29 °F - 27 °F 91%  in 4 mi West 6.9 mph - -   Partly Cloudy
4:00 AM 28.4 °F 21.2 °F 26.6 °F 93% 29.98 in 4.3 mi West 6.9 mph - N/A   Mostly Cloudy
5:00 AM 28.4 °F 21.2 °F 26.6 °F 93% 29.95 in 4.3 mi West 6.9 mph - N/A   Mostly Cloudy
6:00 AM 28.4 °F - 26.6 °F 93% 29.95 in 5.0 mi WNW 2.3 mph - N/A   Mostly Cloudy
7:00 AM 24 °F - 22 °F 90%  in 5 mi West 3.5 mph - -   Partly Cloudy
7:00 AM 24.8 °F 20.5 °F 23.0 °F 93% 29.95 in 5.0 mi West 3.5 mph - N/A   Scattered Clouds
8:00 AM 24.8 °F - 15.8 °F 69% 29.98 in 5.0 mi West 2.3 mph - N/A   Mostly Cloudy
9:00 AM 32.0 °F - 23.0 °F 69% 29.98 in 6.2 mi WNW 2.3 mph - N/A   Mostly Cloudy
10:00 AM 33 °F - 29 °F 79%  in 4 mi WSW 4.6 mph - -   Mostly Cloudy
10:00 AM 32.0 °F 27.5 °F 28.4 °F 87% 29.95 in 3.7 mi WSW 4.6 mph - N/A   Mostly Cloudy
11:00 AM 35.6 °F 29.9 °F 24.8 °F 65% 29.98 in 3.7 mi WNW 6.9 mph - N/A Snow Light Snow
12:00 PM 37.4 °F - 28.4 °F 70% 29.98 in 3.7 mi West 2.3 mph - N/A   Mostly Cloudy
1:00 PM 37 °F - 32 °F 76%  in 4 mi West 5.8 mph - -   Partly Cloudy
1:00 PM 37.4 °F 32.8 °F 32.0 °F 81% 29.98 in 3.7 mi West 5.8 mph - N/A   Mostly Cloudy
2:00 PM 41.0 °F 33.5 °F 32.0 °F 70% 29.95 in 5.0 mi West 13.8 mph - N/A   Mostly Cloudy
3:00 PM 37.4 °F 30.3 °F 33.8 °F 87% 29.95 in 5.0 mi WNW 10.4 mph - N/A   Mostly Cloudy
4:00 PM 35 °F - 33 °F 87%  in 3 mi WNW 11.5 mph - - Snow Light Snow
4:00 PM 35.6 °F 27.5 °F 32.0 °F 87% 29.98 in 3.1 mi WNW 11.5 mph - N/A Snow Light Snow
5:00 PM 37.4 °F 27.8 °F 30.2 °F 75% 29.98 in 5.0 mi WNW 17.3 mph - N/A   Partly Cloudy
6:00 PM 35.6 °F 26.6 °F 32.0 °F 87% 29.95 in 2.5 mi WNW 13.8 mph - N/A   Mostly Cloudy
7:00 PM 36 °F - 30 °F 73%  in 4 mi West 20.7 mph - - Rain Light Drizzle
7:00 PM 37.4 °F 26.9 °F 30.2 °F 75% 29.95 in 3.7 mi West 20.7 mph - N/A   Light Drizzle
8:00 PM 35.6 °F 25.9 °F 32.0 °F 87% 30.01 in 3.7 mi WNW 16.1 mph - N/A Snow Light Snow
9:00 PM 33.8 °F 25.3 °F 32.0 °F 93% 30.01 in 5.0 mi West 11.5 mph - N/A   Scattered Clouds
10:00 PM 35 °F - 32 °F 84%  in 4 mi NW 18.4 mph - - Snow Light Snow
10:00 PM 35.6 °F 25.2 °F 32.0 °F 87% 30.01 in 4.3 mi NW 18.4 mph - N/A Snow Light Snow
11:00 PM 33.8 °F 23.5 °F 32.0 °F 93% 30.04 in 3.7 mi NW 16.1 mph - N/A Snow Light Snow